User: anonymous   Login
Location: Brno
(49.2000°N, 16.6330°E)
Time: 01:10:19
(UTC+02:00)
Language:

Meteor 1-4 Rocket - Orbit

View from above orbital plane
View from above orbital plane
View from above satellite
View from above satellite

Ground track
Ground track

The orbit data is extracted from the following two-line orbital elements,

1 04394U 70037B   16122.50300302  .00002445  00000-0  89276-4 0  9993
2 04394  81.2413 137.7423 0043704  88.7155 271.9085 15.26764815501924
Epoch (UTC): 01 May 2016 12:04:19
Eccentricity: 0.0043704
inclination: 81.2413°
perigee height: 455 km
apogee height: 515 km
right ascension of ascending node: 137.7423°
argument of perigee: 88.7155°
revolutions per day: 15.26764815
mean anomaly at epoch: 271.9085°
orbit number at epoch: 50192

The dashed part of the orbit path shows where the satellite is in the earth's shadow,  

DLR